Preview of NWS' New Version of Forecast
This preview is not operational and should not be used for support decisions.

Regional Weather Roundup (RWR)

Issued by National Weather Service (NWS)

                            
000
ASUS46 KPQR 241110
RWROR 

OREGON REGIONAL WEATHER ROUNDUP
NATIONAL WEATHER SERVICE PORTLAND OR
400 AM PDT MON JUN 24 2019

NOTE: "FAIR" INDICATES FEW OR NO CLOUDS BELOW 12,000 FEET WITH
NO SIGNIFICANT WEATHER AND/OR OBSTRUCTIONS TO VISIBILITY.

ORZ001>013-241200-
NORTHWEST OREGON

  
CITY           SKY/WX    TMP DP  RH WIND       PRES   REMARKS
ASTORIA        CLOUDY    54  51  90 CALM      30.12F                  
TILLAMOOK      CLEAR     46  45  93 CALM      30.15F                  
NEWPORT        CLEAR     46  43  87 CALM      30.15F                  
PORTLAND       MOCLDY    54  47  77 NW5       30.13S                  
VANCOUVER WA   PTCLDY    53  46  77 NW5       30.12F                  
SCAPPOOSE      CLEAR     44  42  93 CALM      30.12S                  
HILLSBORO      PTCLDY    45  41  86 CALM      30.13S                  
AURORA         MOCLDY    53  45  74 CALM      30.13F                  
MCMINNVILLE    CLOUDY    53  45  74 N3        30.12F                  
SALEM          CLOUDY    55  44  66 N7        30.11F                  
CORVALLIS      CLEAR     49  46  90 NW7       30.12F                  
EUGENE         CLEAR     49  45  86 N8        30.11S                  
$$

ORZ021-028-241200-
SOUTHWEST OREGON

  
CITY           SKY/WX    TMP DP  RH WIND       PRES   REMARKS
NORTH BEND     CLEAR     50  48  93 CALM      30.13F FOG              
BROOKINGS      PTCLDY    49  47  93 NW5       30.03F                  
ROSEBURG       CLEAR     55  47  74 CALM      30.09S                  
SEXTON SUMMIT  CLEAR     48  44  86 N9        30.07F                  
GRANTS PASS    FAIR      55  46  71 CALM      30.06F                  
MEDFORD        CLEAR     57  44  62 N3        30.02F                  
$$

ORZ014>016-041-241200-
COLUMBIA GORGE

  
CITY           SKY/WX    TMP DP  RH WIND       PRES   REMARKS
TROUTDALE      MOCLDY    54  47  77 CALM      30.13S                  
HOOD RIVER     CLEAR     54  45  71 NW12G17   30.06S                  
THE DALLES     CLEAR     56  44  64 W14       30.04R                  
$$

ORZ029>031-041-044-049-050-061>064-502-503-505>511-241200-
EASTERN OREGON

  
CITY           SKY/WX    TMP DP  RH WIND       PRES   REMARKS
MADRAS         CLEAR     39  36  87 SE3       30.07F                  
REDMOND        CLEAR     43  37  79 SE5       30.05F                  
BEND           CLEAR     43  39  87 S6        30.06F                  
PRINEVILLE     CLEAR     37  36  93 CALM      30.05F                  
KLAMATH FALLS  CLEAR     43  37  79 N3        30.07F                  
LAKEVIEW       CLEAR     39  34  82 N6        30.09F                  
HERMISTON      CLEAR     56  44  64 SW10      29.99S                  
PENDLETON      CLEAR     52  39  61 VRB5      30.02S                  
JOHN DAY       CLEAR     47  38  72 SW3       30.06S                  
MEACHAM        CLEAR     37  34  89 CALM      30.05S                  
LA GRANDE      CLEAR     48  39  71 W12       30.04S                  
BAKER CITY     CLEAR     40  36  86 S3        30.03F                  
BURNS          CLEAR     41  33  73 W5        30.07S                  
ROME             N/A     45  32  60 S9        30.03F                  
ONTARIO        CLEAR     54  38  54 W3        30.00S                  
$$